TimeCDT,TemperatureF,Dew PointF,Humidity,Sea Level PressureIn,VisibilityMPH,Wind Direction,Wind SpeedMPH,Gust SpeedMPH,PrecipitationIn,Events,Conditions,WindDirDegrees,DateUTC
12:52 AM,35.1,16.0,46,30.30,10.0,NNE,12.7,-,N/A,,Clear,30,2013-04-02 05:52:00
1:52 AM,33.1,17.1,52,30.32,10.0,NNE,6.9,-,N/A,,Clear,30,2013-04-02 06:52:00
2:52 AM,34.0,17.1,50,30.31,10.0,NE,11.5,-,N/A,,Clear,50,2013-04-02 07:52:00
3:52 AM,32.0,18.0,56,30.31,10.0,ENE,6.9,-,N/A,,Clear,60,2013-04-02 08:52:00
4:52 AM,33.1,19.0,56,30.32,10.0,ENE,5.8,-,N/A,,Clear,60,2013-04-02 09:52:00
5:52 AM,30.0,18.0,61,30.34,10.0,Calm,Calm,-,N/A,,Clear,0,2013-04-02 10:52:00
6:52 AM,28.0,18.0,66,30.34,10.0,ENE,6.9,-,N/A,,Clear,60,2013-04-02 11:52:00
7:52 AM,30.9,19.0,61,30.35,8.0,ENE,4.6,-,N/A,,Clear,60,2013-04-02 12:52:00
8:52 AM,35.1,19.9,54,30.37,9.0,East,8.1,-,N/A,,Clear,90,2013-04-02 13:52:00
9:52 AM,39.0,19.9,46,30.36,10.0,East,6.9,-,N/A,,Clear,90,2013-04-02 14:52:00
10:52 AM,42.1,18.0,38,30.36,10.0,Variable,5.8,-,N/A,,Clear,0,2013-04-02 15:52:00
12:52 PM,46.9,19.0,33,30.33,10.0,NE,10.4,-,N/A,,Clear,50,2013-04-02 17:52:00
1:52 PM,46.9,18.0,32,30.32,10.0,Variable,3.5,-,N/A,,Clear,0,2013-04-02 18:52:00
2:52 PM,50.0,18.0,28,30.30,10.0,Variable,5.8,-,N/A,,Clear,0,2013-04-02 19:52:00
3:52 PM,52.0,18.0,26,30.28,10.0,East,8.1,-,N/A,,Clear,100,2013-04-02 20:52:00
4:52 PM,53.1,18.0,25,30.26,10.0,Variable,4.6,-,N/A,,Clear,0,2013-04-02 21:52:00
5:52 PM,52.0,18.0,26,30.26,10.0,ENE,5.8,-,N/A,,Clear,70,2013-04-02 22:52:00
6:52 PM,50.0,19.0,29,30.27,8.0,ENE,5.8,-,N/A,,Clear,70,2013-04-02 23:52:00
7:52 PM,45.0,21.0,39,30.26,10.0,East,4.6,-,N/A,,Clear,80,2013-04-03 00:52:00
8:52 PM,41.0,21.0,45,30.28,10.0,NE,4.6,-,N/A,,Clear,50,2013-04-03 01:52:00
9:52 PM,36.0,23.0,59,30.30,10.0,East,5.8,-,N/A,,Clear,90,2013-04-03 02:52:00
10:52 PM,36.0,23.0,59,30.30,10.0,East,5.8,-,N/A,,Clear,80,2013-04-03 03:52:00
11:52 PM,34.0,23.0,64,30.31,10.0,ESE,3.5,-,N/A,,Clear,110,2013-04-03 04:52:00